Find Starlink 30113

NORAD ID: 56291 Int'l Des: 2023-056 Owner: SPXS Country: US Constellation: starlink operational
LEOCIRCULAR

Live-Position

3D-Globus wird geladen...

Über Starlink 30113

Beschreibung wird geladen...

Nächste Überflüge

Passes for default location (London). Set your location on the main map for personalized predictions.

Höhenverlauf

Loading altitude history...

Zweizeiliger Elementsatz

1 56291U 23056F 26125.79026708 .00002469 00000-0 99214-4 0 9994
2 56291 43.0051 246.3726 0001793 274.0452 86.0195 15.27581917168776
Epoch: 5. Mai 2026 • Age: 8 hours

Aktueller Status

Höhe 484.4 km
Geschwindigkeit 7.62 km/s
Subsatellitenpunkt -10.80°S, 32.33°W
Startdatum 19. Apr. 2023
Alter 3 years
Typ internet

Technische Details

Klassifizierung Payload
Masse 730.00 kg
Trockenmasse 700.00 kg
Gesamtmasse 730.00 kg
Länge 0.30 m
Durchmesser 4.10 m
Spannweite 29.00 m
Form Box + pan
Hersteller SPXS
Bus-Typ Starlink V2M
Phasenstatus In Orbit
Besitzer/Staat SPXS/US

Most Searched